Location: Bartoszyce
(54.2531°N, 20.8133°E)
Time: 22:48:41
(UTC+02:00)

ISS - Visible Passes

Search period start: 25 September 2018 00:00
Search period end: 05 October 2018 00:00
Orbit: 403 x 408 km, 51.6° (Epoch: 26 September)

Date Brightness Start Highest point End Pass type
(mag) Time Alt. Az. Time Alt. Az. Time Alt. Az.
25 Sep -2.1 19:29:40 10° SSW 19:32:04 19° SSE 19:33:24 15° ESE visible
25 Sep -1.6 21:04:54 10° WSW 21:06:06 20° SW 21:06:06 20° SW visible
26 Sep -3.2 20:13:11 10° SW 20:16:17 37° SSE 20:16:23 37° SSE visible
27 Sep -2.7 19:21:36 10° SW 19:24:30 29° SSE 19:26:35 15° ESE visible
27 Sep -2.2 20:57:26 10° WSW 20:59:16 29° WSW 20:59:16 29° WSW visible
28 Sep -3.5 20:05:37 10° WSW 20:08:49 48° S 20:09:23 42° SE visible
28 Sep -0.6 21:41:54 10° W 21:42:03 11° W 21:42:03 11° W visible
29 Sep -3.1 19:13:51 10° SW 19:16:59 40° SSE 19:19:26 15° E visible
29 Sep -2.4 20:50:00 10° W 20:52:07 34° WSW 20:52:07 34° WSW visible
30 Sep -3.6 19:58:06 10° WSW 20:01:21 54° S 20:02:08 41° SE visible
30 Sep -0.7 21:34:31 10° W 21:34:48 12° W 21:34:48 12° W visible
01 Oct -3.4 19:06:15 10° WSW 19:09:27 51° S 19:12:07 14° E visible
01 Oct -2.5 20:42:33 10° W 20:44:47 34° WSW 20:44:47 34° WSW visible
02 Oct -3.4 19:50:36 10° W 19:53:50 52° S 19:54:46 37° SE visible
02 Oct -0.7 21:27:10 10° W 21:27:26 12° W 21:27:26 12° W visible
03 Oct -3.4 18:58:40 10° WSW 19:01:55 54° S 19:04:44 13° ESE visible
03 Oct -2.3 20:35:06 10° W 20:37:24 30° SW 20:37:24 30° SW visible
04 Oct -3.0 19:43:05 10° W 19:46:15 42° SSW 19:47:23 29° SE visible
04 Oct -0.6 21:20:03 10° WSW 21:20:03 10° WSW 21:20:03 10° WSW visible
